Home   Weather   Campeche   Past weeks
Flag for Mexico

Past Weather in Campeche, Campeche, Mexico — Yesterday and Last 2 Weeks

Now
79 °F

Scattered clouds.


Feels Like: 80 °F
Forecast: 83 / 67 °F
Wind: 7 mph from East

Location: Campeche

Current Time: Jan 17, 2019 at 11:31:57 am

Latest Report: Jan 17, 2019 at 10:45 am


Visibility: 7 mi

Pressure: 30.19 "Hg

Humidity: 58%

Dew Point: 63 °F

Location of CampecheLocation

Past Weather in Campeche — Graph

°F

Campeche Temperature Yesterday

Maximum temperature yesterday: 81 °F (at 11:42 am)
Minimum temperature yesterday: 66 °F (at 4:44 am)
Average temperature yesterday: 73 °F

High & Low Weather Summary for the Past Weeks

 TemperatureHumidityPressure
High90 °F (Jan 2, 2:45 pm)100% (Jan 3, 5:41 am)30.21 "Hg (Jan 3, 5:41 am)
Low54 °F (Jan 11, 5:40 am)38% (Jan 2, 3:44 pm)29.82 "Hg (Jan 3, 2:43 pm)
Average73 °F79%30.07 "Hg
* Reported Jan 2 9:48 am — Jan 17 9:41 am, Campeche. Weather by CustomWeather, © 2019

Note: Actual official high and low records may vary slightly from our data, if they occured in-between our weather recording intervals... More about our weather records

Advertising

Campeche Weather History for the Previous 24 Hours

Scroll right to see more
 ConditionsComfort  
Time TempWeatherWind HumidityBarometerVisibility
9:41 am
Thu, Jan 17
75 °FScattered clouds.12 mph65%30.20 "Hg7 mi
8:43 am70 °FScattered clouds.18 mph73%30.15 "Hg7 mi
7:42 am66 °FScattered clouds.9 mph83%30.17 "Hg7 mi
6:41 am64 °FScattered clouds.No wind88%30.16 "Hg7 mi
5:42 am63 °FPassing clouds.No wind94%30.11 "Hg7 mi
4:47 am64 °FPassing clouds.No wind88%30.14 "Hg7 mi
4:11 am63 °FPassing clouds.No wind94%30.14 "Hg7 mi
12:44 am68 °FClear.No wind78%30.15 "Hg7 mi
12:11 am70 °FClear.12 mph73%30.15 "Hg7 mi
10:41 pm
Wed, Jan 16
72 °FClear.12 mph65%30.15 "Hg7 mi
9:42 pm72 °FClear.12 mph65%30.15 "Hg7 mi
8:40 pm73 °FClear.9 mph69%30.14 "Hg7 mi
7:45 pm73 °FClear.12 mph83%30.11 "Hg7 mi
6:45 pm75 °FClear.12 mph78%30.10 "Hg7 mi
5:41 pm75 °FPassing clouds.12 mph78%30.06 "Hg7 mi
4:45 pm75 °FPassing clouds.14 mph74%30.09 "Hg7 mi
3:45 pm75 °FScattered clouds.14 mph78%30.09 "Hg7 mi
2:42 pm77 °FPassing clouds.12 mph74%30.06 "Hg7 mi
1:44 pm81 °FScattered clouds.12 mph62%30.10 "Hg7 mi
12:44 pm81 °FScattered clouds.12 mph58%30.12 "Hg7 mi
11:42 am81 °FScattered clouds.6 mph54%30.12 "Hg7 mi
Weather by CustomWeather, © 2019

See weather overview